User: anonymous   Login
Location: Carrières
(48.9495°N, 2.0407°E)
Time: 12:53:26
(UTC+00:00)
Language:

Cosmos 1606 Rocket - Orbit

View from above orbital plane
View from above orbital plane
View from above satellite
View from above satellite

Ground track
Ground track

The orbit data is extracted from the following two-line orbital elements,

1 15370U 84111B   25133.53683490  .00000454  00000-0  49464-4 0  9997
2 15370  82.5164 178.8830 0018773 244.2269 115.7010 14.85705318171303
Epoch (UTC): 13 May 2025 12:53:02
Eccentricity: 0.0018773
inclination: 82.5164°
perigee height: 598 km
apogee height: 624 km
right ascension of ascending node: 178.8830°
argument of perigee: 244.2269°
revolutions per day: 14.85705318
mean anomaly at epoch: 115.7010°
orbit number at epoch: 17130

The dashed part of the orbit path shows where the satellite is in the earth's shadow,  

DLR